Weather History for Denton, TX

Change the Weather History Date:

Saturday, March 1, 2014

  Actual Average Record
Temperature  
Mean Temperature 62 °F -  
Max Temperature 79 °F 58 °F 93 °F (2006)
Min Temperature 46 °F 36 °F 25 °F (2009)
Degree Days  
Heating Degree Days 2    
Growing Degree Days 12 (Base 50)    
Moisture  
Dew Point 52 °F    
Average Humidity 82    
Maximum Humidity 100    
Minimum Humidity 35    
Precipitation  
Precipitation 0.00 in - - ()
Sea Level Pressure  
Sea Level Pressure 29.90 in    
Wind  
Wind Speed 8 mph (ENE)    
Max Wind Speed 20 mph    
Max Gust Speed 23 mph    
Visibility 6 miles    
Events Fog    
Averages and records for this station are not official NWS values.
T = Trace of Precipitation, MM = Missing Value Source: NWS Daily Summary

Daily Weather History Graph

Daily Weather History Graph

Search for Another Location

Airport:

Trip Planner

Search our weather history database for the weather conditions in past years. The results will help you decide how hot, cold, wet, or windy it might be!

Date:

Astronomy

Mar. 01, 2014 Rise Set
Actual Time 6:56 AM CST 6:25 PM CST
Civil Twilight 6:32 AM CST 6:50 PM CST
Nautical Twilight 6:03 AM CST 7:19 PM CST
Astronomical Twilight 5:34 AM CST 7:48 PM CST
Moon 6:54 AM CST (3/1) 7:09 PM CST (3/1)
Length of Visible Light 12h 18m
Length of Day
11h 28m
New Moon, 0% of the Moon is Illuminated
Mar 1
New Moon
Mar 8
First Quarter
Mar 16
Full
Mar 23
Last Quarter
Mar 30
New

Hourly Weather History & Observations

Time (CST) Temp. Windchill Dew Point Humidity Pressure Visibility Wind Dir Wind Speed Gust Speed Precip Events Conditions
12:53 AM 50.0 °F - 46.9 °F 89% 29.83 in 10.0 mi NE 8.1 mph - N/A   Overcast
1:53 AM 48.0 °F - 46.9 °F 96% 29.84 in 7.0 mi NNE 8.1 mph - N/A   Overcast
2:43 AM 46.4 °F 42.4 °F 46.4 °F 100% 29.86 in 6.0 mi NE 8.1 mph - N/A   Overcast
2:53 AM 46.9 °F - 46.0 °F 97% 29.84 in 5.0 mi NE 9.2 mph - N/A   Overcast
3:03 AM 48.2 °F - 46.4 °F 93% 29.86 in 4.0 mi NE 10.4 mph - N/A   Overcast
3:15 AM 48.2 °F - 46.4 °F 93% 29.87 in 1.8 mi NE 8.1 mph - N/A   Overcast
3:30 AM 48.2 °F - 48.2 °F 100% 29.86 in 0.5 mi NE 9.2 mph - N/A Fog Fog
3:53 AM 48.9 °F - 48.9 °F 100% 29.86 in 0.2 mi NE 8.1 mph - N/A Fog Fog
4:53 AM 51.1 °F - 51.1 °F 100% 29.87 in 0.2 mi ENE 6.9 mph - N/A Fog Fog
5:53 AM 52.0 °F - 52.0 °F 100% 29.88 in 0.2 mi ENE 5.8 mph - N/A Fog Fog
6:53 AM 53.1 °F - 53.1 °F 100% 29.91 in 0.2 mi East 6.9 mph - N/A Fog Fog
7:53 AM 50.0 °F - 50.0 °F 100% 29.93 in 0.2 mi NNE 5.8 mph - N/A Fog Fog
8:38 AM 50.0 °F - 50.0 °F 100% 29.97 in 0.5 mi North 6.9 mph - N/A Fog Fog
8:53 AM 50.0 °F - 50.0 °F 100% 29.96 in 0.5 mi NNE 8.1 mph - N/A Fog Fog
9:08 AM 51.8 °F - 51.8 °F 100% 29.97 in 1.0 mi NNE 8.1 mph - N/A   Overcast
9:46 AM 51.8 °F - 51.8 °F 100% 29.98 in 2.0 mi NNE 5.8 mph - N/A   Overcast
9:53 AM 52.0 °F - 52.0 °F 100% 29.97 in 2.5 mi NE 4.6 mph - N/A   Overcast
9:59 AM 53.6 °F - 51.8 °F 94% 29.98 in 3.0 mi NE 5.8 mph - N/A   Overcast
10:48 AM 59.0 °F - 53.6 °F 82% 29.97 in 5.0 mi Calm Calm - N/A   Haze
10:53 AM 60.1 °F - 53.1 °F 78% 29.96 in 5.0 mi Calm Calm - N/A   Haze
11:53 AM 66.0 °F - 52.0 °F 60% 29.95 in 9.0 mi Calm Calm - N/A   Clear
12:53 PM 71.1 °F - 48.9 °F 45% 29.92 in 10.0 mi SSW 8.1 mph - N/A   Clear
1:53 PM 75.9 °F - 48.9 °F 38% 29.88 in 10.0 mi SSE 8.1 mph - N/A   Clear
2:53 PM 79.0 °F - 48.9 °F 35% 29.86 in 10.0 mi SSE 15.0 mph 19.6 mph N/A   Clear
3:53 PM 78.1 °F - 52.0 °F 40% 29.84 in 10.0 mi SSE 15.0 mph - N/A   Clear
4:53 PM 77.0 °F - 60.1 °F 56% 29.83 in 10.0 mi SSE 19.6 mph - N/A   Clear
5:53 PM 72.0 °F - 61.0 °F 68% 29.85 in 10.0 mi SSE 17.3 mph - N/A   Clear
6:53 PM 69.1 °F - 61.0 °F 75% 29.87 in 10.0 mi SSE 13.8 mph 23.0 mph N/A   Scattered Clouds
7:06 PM 69.8 °F - 60.8 °F 73% 29.87 in 10.0 mi SSE 13.8 mph - N/A   Mostly Cloudy
7:53 PM 69.1 °F - 61.0 °F 75% 29.88 in 10.0 mi SE 6.9 mph - N/A   Overcast
8:11 PM 69.8 °F - 60.8 °F 73% 29.90 in 10.0 mi ESE 3.5 mph - N/A   Overcast
8:53 PM 68.0 °F - 61.0 °F 78% 29.90 in 10.0 mi ENE 4.6 mph - N/A   Overcast
9:53 PM 68.0 °F - 61.0 °F 78% 29.91 in 10.0 mi North 6.9 mph - N/A   Overcast
10:53 PM 57.0 °F - 51.1 °F 81% 29.94 in 9.0 mi North 10.4 mph - N/A   Overcast
11:53 PM 57.0 °F - 51.1 °F 81% 29.94 in 8.0 mi North 10.4 mph - N/A   Overcast